Miscellaneous Local Product
Issued by NWS North Platte, NE

Home | Current Version | Previous Version | Text Only | Print | Product List | Glossary On
Versions: 1 2 3 4 5 6 7 8 9 10 11 12 13 14 15 16 17 18 19 20 21 22 23 24 25 26 27 28 29 30 31 32 33 34 35 36 37 38 39 40 41 42 43 44 45 46 47 48 49 50
000
AXUS43 KLBF 021210
MISLBF


WESTERN AND NORTH CENTRAL NEBRASKA HOURLY WEATHER ROUNDUP
NATIONAL WEATHER SERVICE NORTH PLATTE NE
700 AM CDT TUE SEP 02 2014

***STATIONS NOT REPORTING VARIABLES SUCH AS SKY/WEATHER OR
PRESSURE ARE PROVIDED BY THE NEBRASKA DEPARTMENT OF
ROADS...RAWS...AND APRS NETWORKS...AND ARE NOT UNDER
NATIONAL WEATHER SERVICE QUALITY CONTROL***

...OBSERVATIONS IN AND NEAR THE EASTERN PANHANDLE OF NEBRASKA...

CITY           SKY/WX    TMP DP  RH WIND       PRES   REMARKS
PINE RIDGE     CLEAR     38  38 100 MISG      30.01F
CHADRON        CLEAR     44  42  93 SW5       30.02S
ALLIANCE       CLEAR     39  38  96 W6        30.06S WCI  35
SIDNEY         CLEAR     44  41  89 W8        30.09S
WHITECLAY        N/A     40  38  94 SE7         N/A  WCI  35
RUSHVILLE        N/A     37  36  93 SW9         N/A  WCI  31
GORDON           N/A     46  46  99 NE71        N/A
CRESCENT LAKE    N/A     45  44  98 CALM        N/A
LISCO            N/A     40  37  89 CALM        N/A
BIG SPRINGS      N/A     47  45  94 SE3         N/A
$$

...OBSERVATIONS IN NORTH CENTRAL NEBRASKA...

CITY           SKY/WX    TMP DP  RH WIND       PRES   REMARKS
VALENTINE      CLEAR     46  45  96 SW5       30.00S
THEDFORD       CLEAR     47  47  97 W5        30.03S
AINSWORTH      CLEAR     49  47  91 CALM      30.00R
O`NEILL        CLEAR     52  51  97 W6        29.97S
ORD            CLEAR     49  48  97 NW3       29.98R
BROKEN BOW     CLEAR     54  50  86 CALM      30.00S
SPRINGVIEW       N/A     49  47  94 CALM        N/A
ROSE             N/A     51  50  99 SW5         N/A
NEWPORT          N/A     51  49  93 W8          N/A
COMSTOCK         N/A     54  53  94 CALM        N/A
CHAMBERS         N/A     54  51  89 W3          N/A
EWING            N/A     52  51  95 CALM        N/A
$$

...OBSERVATIONS IN SOUTHWEST NEBRASKA AND FAR NORTHEAST COLORADO...

CITY           SKY/WX    TMP DP  RH WIND       PRES   REMARKS
WRAY             N/A    N/A N/A N/A W3        30.07R
HOLYOKE        FAIR      52  48  87 W5        30.07R
IMPERIAL       CLEAR     52  49  89 N5        30.05R
OGALLALA       CLEAR     44  43  98 CALM      30.04S
NORTH PLATTE   FOG       46  45  96 CALM      30.03R VSB 1/4
MCCOOK         CLEAR     52  51  97 SW3       30.03R
LEXINGTON      CLEAR     50  49  97 NW7       30.01R
PAXTON           N/A     49  47  93 CALM        N/A
SUTHERLAND       N/A     45  43  93 W3          N/A
BRADY            N/A     47  45  92 CALM        N/A
GOTHENBURG       N/A     51  47  88 CALM        N/A
CALLAWAY         N/A     47  46  97 NW5         N/A
$$

...SOME WEATHER OBSERVATIONS FROM AROUND THE REGION...

CITY           SKY/WX    TMP DP  RH WIND       PRES   REMARKS
DENVER         CLEAR     52  41  66 S3        30.13F
LARAMIE        CLEAR     38  32  79 E5        30.18S WCI  34
CHEYENNE       CLEAR     47  42  83 SW9       30.15F
SCOTTSBLUFF    CLEAR     43  42  97 E3        30.07S
RAPID CITY     CLEAR     45  40  82 SW3       29.97S
PIERRE         CLEAR     53  51  93 SW9       29.91F
WINNER         FAIR      53  48  83 SW5       29.96S
SIOUX FALLS    CLEAR     53  51  93 S6        29.92S
OMAHA          PTCLDY    57  54  89 NW7       29.96R
GRAND ISLAND   CLEAR     53  50  89 W5        30.00R
KANSAS CITY    MOCLDY    65  64  97 CALM      29.93S FOG
WICHITA        CLOUDY    72  68  87 N5        29.95R
HAYS           PTCLDY    61  54  77 CALM      30.02R
LIBERAL        MOCLDY    68  63  83 NE12      30.02R
GOODLAND       CLEAR     54  53  97 S10       30.08R
$$



USA.gov is the U.S. government's official web portal to all federal, state and local government web resources and services.